STARLINK-36687

Last updated on Tue Mar 10 2026 00:02:05 GMT+0000 (Coordinated Universal Time)

1 67711U 26025U 26068.27136459 .00209352 00000+0 10640-2 0 9999 2 67711 97.2838 179.9729 0000830 88.0821 272.0543 15.80891699 5894
UTC large
Height (km)
Speed (km/s)
/
Latitude / Longitude
Inclination (degrees)
Orbital Period (minutes)
Azimuth
Elevation
Range (km)
Doppler Factor

Next 0 passes for location: London (51.5072 / 0.1276)

Sorry there are no passes over London.